Regional Weather Roundup
Issued by NWS

Home | Current Version | Previous Version | Graphics & Text | Print | Product List | Glossary Off
Versions: 1 2 3 4 5 6 7 8 9 10 11 12 13 14 15 16 17 18 19 20 21 22 23 24 25 26 27 28 29 30 31 32 33 34 35 36 37 38 39 40 41 42 43 44 45 46 47 48 49 50

000
ASUS43 KDTX 221910
RWRMI
MICHIGAN HOURLY REGIONAL WEATHER ROUNDUP
NATIONAL WEATHER SERVICE DETROIT/PONTIAC MI
300 PM EDT FRI AUG 22 2014

NOTE: "FAIR" INDICATES FEW OR NO CLOUDS BELOW 12,000 FEET WITH NO
SIGNIFICANT WEATHER AND/OR OBSTRUCTION TO VISIBILITY.

MIZ047>049-052>055-059>063-066>070-074>076-081>083-222000-
SOUTHEAST LOWER MICHIGAN

CITY           SKY/WX    TMP DP  RH WIND       PRES   REMARKS
ADRIAN         CLOUDY    81  71  71 NE5       29.97F
ALMA           CLOUDY    78  69  73 E8        29.99S
ANN ARBOR      PTSUNNY   82  69  64 NE8       29.96F
BAD AXE        PTSUNNY   76  65  69 N3        30.01F
DETROIT CITY   PTSUNNY   83  68  60 VRB6      29.97F
DETROIT        CLOUDY    82  69  64 NE3       29.96F
FLINT          CLOUDY    80  66  62 NE3       29.99S
GROSSE ILE     MOSUNNY   82  70  65 NE5       29.95F
HILLSDALE      CLOUDY    78  74  85 N5        29.99S
HOWELL         MOSUNNY   79  68  69 CALM      29.98F

CITY           SKY/WX    TMP DP  RH WIND       PRES   REMARKS
JACKSON        CLOUDY    79  72  79 VRB3      29.97F
LAMBERTVILLE   CLOUDY    79  72  78 NE3       29.97R
LANSING        PTSUNNY   81  70  69 VRB6      29.98S
LAPEER         NOT AVBL
MASON          PTSUNNY   78  71  78 CALM      29.97F
MONROE         PTSUNNY   81  72  74 E6        29.94F
MT. CLEMENS    MOSUNNY   80  66  61 E7        29.96F
PONTIAC        CLOUDY    80  66  62 CALM      29.98F
PORT HOPE        N/A     69  63  81 NE7       30.01F
PORT HURON     MOSUNNY   75  66  73 NE10      29.99F
TRI CITIES     MOSUNNY   77  66  68 NE8       30.00F
YPSILANTI      PTSUNNY   85  69  58 N6        29.97F
$$
MIZ043>046-050>051-056>058-064>065-071>073-077>080-222000-
SOUTHWEST LOWER MICHIGAN

CITY           SKY/WX    TMP DP  RH WIND       PRES   REMARKS
BATTLE CREEK   CLOUDY    78  71  79 N3        29.99S
BENTON HARBOR  PTSUNNY   80  72  76 W8        29.96F
BIG RAPIDS     CLOUDY    78  71  78 SE3       29.98S
COLDWATER      CLOUDY    82  73  75 N5        29.97S
HOLLAND        CLOUDY    79  72  79 CALM      29.98S
GRAND RAPIDS   CLOUDY    79  74  84 E5        29.97F
KALAMAZOO      CLOUDY    80  71  74 W6        29.98R
MARSHALL       CLOUDY    76  71  84 NE3       29.97F
MUSKEGON       CLOUDY    82  71  69 S5        29.96S
$$
MIZ016>042-222000-
NORTHERN LOWER MICHIGAN

CITY           SKY/WX    TMP DP  RH WIND       PRES   REMARKS
ALPENA         SUNNY     77  63  61 E6        30.02S
BEAVER ISLAND  CLOUDY    75  67  75 E8        30.01S
BELLAIRE       CLOUDY    81  65  58 SW3       29.98S
CADILLAC       CLOUDY    75  67  76 E3        30.00F
CHARLEVOIX     PTSUNNY   75  68  77 NW7       30.02F
FRANKFORT      CLOUDY    75  69  82 CALM      29.99S
GAYLORD        CLOUDY    76  64  66 VRB3      30.02F
GRAYLING       PTSUNNY   77  65  67 S3        30.02F
HARBOR SPRINGS PTSUNNY   76  66  70 E7        30.00F
HOUGHTON LAKE  MOSUNNY   77  64  64 VRB5      30.01F
MANISTEE       CLOUDY    75  70  83 NW8       29.99S
OSCODA         SUNNY     74  64  72 E9        30.01F
PELLSTON       CLOUDY    73  65  75 E6        30.02F
TRAVERSE CITY  PTSUNNY   81  65  58 CALM      29.97S
$$
MIZ007>008-015-222000-
EASTERN UPPER MICHIGAN

CITY           SKY/WX    TMP DP  RH WIND       PRES   REMARKS
KINROSS        PTSUNNY   77  64  65 SE9       30.03S
MACKINAC ISLAN CLOUDY    68  64  88 E7        30.03S
NEWBERRY       CLOUDY    69  64  84 S7        30.03S
S. S. MARIE    MOSUNNY   78  64  61 SE7       30.02F
$$
MIZ004>006-011>014-085-222000-
CENTRAL UPPER MICHIGAN

CITY           SKY/WX    TMP DP  RH WIND       PRES   REMARKS
MANISTIQUE     CLOUDY    73  66  79 E7        30.01S
ESCANABA       PTSUNNY   73  64  73 SE12      29.99S
MENOMINEE      CLOUDY    73  66  78 E8        29.97F
SAWYER-GWINN   CLOUDY    73  66  78 SE3       30.01F
$$
MIZ001>003-009>011-084-222000-
WESTERN UPPER MICHIGAN

CITY           SKY/WX    TMP DP  RH WIND       PRES   REMARKS
IRON MOUNTAIN  CLOUDY    71  67  87 SE7       29.98F
HOUGHTON       CLOUDY    68  60  75 E7        30.00S
COPPER HARBOR    N/A     63  56  78 CALM      30.00S
IRONWOOD       CLOUDY    70  68  94 N7        29.95F
$$

ABBREVIATIONS USED IN REMARKS
   TC - TEMPERATURE IN CELSIUS
  WCI - WIND CHILL INDEX
   HX - HEAT INDEX
  VSB - VISIBILITY



USA.gov is the U.S. government's official web portal to all federal, state and local government web resources and services.